This is the latest recevied weather packets stored in our database for station/object PY1AU-13. If no packets are shown the sender has not sent any weather packets the latest 10 day(s).
| Time | Temp. | Humidity | Pressure | Rain* | Wind** | Luminosity | Snow |
|---|---|---|---|---|---|---|---|
| 1778185729 | 28.89° C | 79% | 1012.7 hPa | - | - | - | - |
| 1778185429 | 28.89° C | 79% | 1012.8 hPa | - | - | - | - |
| 1778185129 | 28.89° C | 80% | 1012.7 hPa | - | - | - | - |
| 1778184829 | 28.89° C | 81% | 1012.7 hPa | - | - | - | - |
| 1778184529 | 29.44° C | 82% | 1012.6 hPa | - | - | - | - |
| 1778184229 | 29.44° C | 82% | 1012.5 hPa | - | - | - | - |
| 1778183929 | 29.44° C | 82% | 1012.6 hPa | - | - | - | - |
| 1778183629 | 29.44° C | 82% | 1012.6 hPa | - | - | - | - |
| 1778183329 | 29.44° C | 84% | 1012.6 hPa | - | - | - | - |
| 1778183029 | 29.44° C | 85% | 1012.6 hPa | - | - | - | - |
| 1778182729 | 29.44° C | 84% | 1012.6 hPa | - | - | - | - |
| 1778182429 | 30° C | 82% | 1012.6 hPa | - | - | - | - |
| 1778182129 | 30° C | 80% | 1012.7 hPa | - | - | - | - |
| 1778181829 | 30.56° C | 78% | 1012.7 hPa | - | - | - | - |
| 1778181529 | 30.56° C | 78% | 1012.8 hPa | - | - | - | - |
| 1778181229 | 30.56° C | 77% | 1012.7 hPa | - | - | - | - |
| 1778180929 | 30° C | 78% | 1012.8 hPa | - | - | - | - |
| 1778180629 | 30° C | 77% | 1012.6 hPa | - | - | - | - |
| 1778180329 | 30.56° C | 74% | 1012.6 hPa | - | - | - | - |
| 1778180029 | 30.56° C | 69% | 1012.5 hPa | - | - | - | - |
| 1778179729 | 31.11° C | 69% | 1012.4 hPa | - | - | - | - |
| 1778179429 | 30.56° C | 70% | 1012.6 hPa | - | - | - | - |
| 1778179129 | 30.56° C | 72% | 1012.6 hPa | - | - | - | - |
| 1778178830 | 30° C | 74% | 1012.6 hPa | - | - | - | - |
| 1778178529 | 30° C | 75% | 1012.6 hPa | - | - | - | - |
* Rain since midnight (hover to see other rain measurements)
** Current wind speed in m/s (hover to see current wind gust speed)